| time (UTC) | temp F | wind direction | speed MPH | gust MPH | rain 1hr in | rain 24hr in | rain mn in | humidity % | barometer mb |
| 20260508030523 | 52 | 0.0 | 0.0 | 0.00 | 0.19 | 0.18 | 69 | 1014.0 | |
| 20260508025520 | 52 | 0.0 | 0.0 | 0.00 | 0.19 | 0.18 | 67 | 1014.0 | |
| 20260508024517 | 53 | 270 | 1.0 | 2.0 | 0.00 | 0.19 | 0.18 | 68 | 1014.0 |
| 20260508023613 | 52 | 90 | 0.0 | 1.0 | 0.00 | 0.20 | 0.18 | 68 | 1014.0 |
| 20260508022611 | 53 | 0.0 | 0.0 | 0.00 | 0.20 | 0.18 | 69 | 1013.7 | |
| 20260508021607 | 53 | 0.0 | 0.0 | 0.00 | 0.20 | 0.18 | 69 | 1013.4 | |
| 20260508020603 | 53 | 0.0 | 0.0 | 0.00 | 0.20 | 0.18 | 69 | 1013.3 | |
| 20260508015559 | 53 | 0.0 | 0.0 | 0.00 | 0.21 | 0.18 | 69 | 1013.2 | |
| 20260508014615 | 54 | 0.0 | 0.0 | 0.00 | 0.21 | 0.18 | 69 | 1013.0 | |
| 20260508013552 | 55 | 0.0 | 0.0 | 0.00 | 0.21 | 0.18 | 66 | 1012.8 | |
| 20260508012549 | 55 | 0.0 | 0.0 | 0.00 | 0.21 | 0.18 | 66 | 1012.6 | |
| 20260508011545 | 56 | 0.0 | 0.0 | 0.00 | 0.21 | 0.18 | 66 | 1012.5 | |
| 20260508010542 | 56 | 0.0 | 0.0 | 0.00 | 0.21 | 0.18 | 67 | 1012.4 | |
| 20260508005539 | 56 | 54 | 1.0 | 2.0 | 0.00 | 0.21 | 0.18 | 67 | 1012.4 |
| 20260508004555 | 56 | 0 | 1.0 | 2.0 | 0.00 | 0.22 | 0.18 | 68 | 1012.2 |
| 20260508003532 | 56 | 0 | 1.0 | 2.0 | 0.00 | 0.22 | 0.18 | 68 | 1012.2 |
| 20260508002529 | 56 | 0.0 | 0.0 | 0.00 | 0.22 | 0.18 | 67 | 1012.3 | |
| 20260508001545 | 57 | 0.0 | 0.0 | 0.00 | 0.22 | 0.18 | 66 | 1012.4 | |
| 20260508000522 | 57 | 0.0 | 0.0 | 0.00 | 0.22 | 0.18 | 66 | 1012.4 | |
| 20260507235517 | 57 | 0.0 | 0.0 | 0.00 | 0.22 | 0.18 | 66 | 1012.2 | |
| 20260507234633 | 58 | 0.0 | 0.0 | 0.00 | 0.22 | 0.18 | 66 | 1012.2 | |
| 20260507233610 | 58 | 0.0 | 0.0 | 0.00 | 0.22 | 0.18 | 66 | 1011.9 | |
| 20260507232612 | 58 | 0.0 | 0.0 | 0.00 | 0.22 | 0.18 | 65 | 1011.7 | |
| 20260507231604 | 58 | 90 | 0.0 | 1.0 | 0.00 | 0.22 | 0.18 | 65 | 1011.6 |
| 20260507230600 | 58 | 90 | 1.0 | 2.0 | 0.00 | 0.22 | 0.18 | 65 | 1011.4 |
| 20260507225616 | 58 | 69 | 2.0 | 3.0 | 0.00 | 0.22 | 0.18 | 65 | 1011.2 |
| 20260507224553 | 58 | 65 | 2.0 | 3.0 | 0.00 | 0.22 | 0.18 | 65 | 1011.1 |
| 20260507223549 | 58 | 74 | 2.0 | 3.0 | 0.00 | 0.22 | 0.18 | 65 | 1011.1 |
| 20260507222546 | 59 | 71 | 2.0 | 3.0 | 0.00 | 0.22 | 0.18 | 65 | 1010.9 |
| 20260507221543 | 58 | 90 | 1.0 | 3.0 | 0.00 | 0.22 | 0.18 | 65 | 1011.0 |
| 20260507220559 | 59 | 90 | 1.0 | 2.0 | 0.00 | 0.22 | 0.18 | 65 | 1010.8 |
| 20260507215555 | 59 | 100 | 1.0 | 3.0 | 0.00 | 0.22 | 0.18 | 65 | 1010.7 |
| 20260507214532 | 59 | 81 | 3.0 | 4.0 | 0.00 | 0.22 | 0.18 | 62 | 1010.6 |
| 20260507213529 | 59 | 90 | 2.0 | 3.0 | 0.00 | 0.22 | 0.18 | 63 | 1010.6 |
| 20260507212546 | 59 | 90 | 2.0 | 4.0 | 0.00 | 0.22 | 0.18 | 65 | 1010.3 |
| 20260507211522 | 58 | 90 | 2.0 | 3.0 | 0.00 | 0.22 | 0.18 | 65 | 1010.4 |
| 20260507210519 | 59 | 83 | 2.0 | 5.0 | 0.00 | 0.22 | 0.18 | 65 | 1010.4 |
| 20260507205515 | 59 | 72 | 3.0 | 5.0 | 0.00 | 0.22 | 0.18 | 65 | 1010.1 |
| 20260507204612 | 58 | 90 | 3.0 | 5.0 | 0.00 | 0.22 | 0.18 | 65 | 1010.2 |
| 20260507203628 | 58 | 90 | 3.0 | 5.0 | 0.00 | 0.22 | 0.18 | 63 | 1010.2 |
| 20260507202605 | 59 | 90 | 3.0 | 5.0 | 0.00 | 0.22 | 0.18 | 65 | 1010.1 |
| 20260507201602 | 59 | 60 | 3.0 | 5.0 | 0.00 | 0.22 | 0.18 | 68 | 1010.2 |
| 20260507200618 | 58 | 90 | 3.0 | 4.0 | 0.00 | 0.22 | 0.18 | 70 | 1010.3 |
| 20260507195555 | 58 | 85 | 2.0 | 3.0 | 0.00 | 0.22 | 0.18 | 69 | 1010.7 |
| 20260507194611 | 58 | 54 | 3.0 | 5.0 | 0.00 | 0.22 | 0.18 | 69 | 1010.6 |
| 20260507193548 | 58 | 35 | 3.0 | 5.0 | 0.00 | 0.22 | 0.18 | 69 | 1010.7 |
| 20260507192544 | 58 | 51 | 4.0 | 5.0 | 0.00 | 0.22 | 0.18 | 68 | 1010.6 |
| 20260507191541 | 59 | 82 | 3.0 | 5.0 | 0.00 | 0.22 | 0.18 | 67 | 1010.1 |
| 20260507190538 | 60 | 62 | 3.0 | 7.0 | 0.00 | 0.22 | 0.18 | 65 | 1010.0 |
| 20260507185534 | 60 | 79 | 4.0 | 6.0 | 0.00 | 0.22 | 0.18 | 65 | 1010.3 |
| 20260507184531 | 60 | 45 | 4.0 | 5.0 | 0.00 | 0.22 | 0.18 | 65 | 1010.3 |
| 20260507183527 | 60 | 52 | 3.0 | 4.0 | 0.00 | 0.22 | 0.18 | 65 | 1010.3 |
| 20260507182523 | 61 | 85 | 4.0 | 6.0 | 0.00 | 0.22 | 0.18 | 66 | 1010.2 |
| 20260507181520 | 61 | 80 | 2.0 | 3.0 | 0.00 | 0.22 | 0.18 | 66 | 1010.2 |
| 20260507180536 | 61 | 45 | 3.0 | 5.0 | 0.00 | 0.22 | 0.18 | 66 | 1010.1 |
| 20260507175613 | 62 | 90 | 3.0 | 5.0 | 0.00 | 0.22 | 0.18 | 66 | 1010.1 |
| 20260507174610 | 62 | 75 | 3.0 | 5.0 | 0.00 | 0.22 | 0.18 | 66 | 1010.1 |
| 20260507173606 | 62 | 81 | 3.0 | 5.0 | 0.00 | 0.22 | 0.18 | 66 | 1010.2 |
| 20260507172603 | 63 | 80 | 2.0 | 4.0 | 0.00 | 0.22 | 0.18 | 70 | 1010.2 |
| 20260507171559 | 63 | 90 | 2.0 | 4.0 | 0.00 | 0.22 | 0.18 | 76 | 1010.1 |
| 20260507170556 | 63 | 90 | 2.0 | 3.0 | 0.00 | 0.22 | 0.18 | 88 | 1010.3 |
| 20260507165553 | 63 | 90 | 2.0 | 3.0 | 0.00 | 0.22 | 0.18 | 95 | 1010.3 |
| 20260507164629 | 62 | 90 | 2.0 | 3.0 | 0.00 | 0.22 | 0.18 | 96 | 1010.3 |
| 20260507163546 | 63 | 90 | 3.0 | 5.0 | 0.00 | 0.22 | 0.18 | 98 | 1010.1 |
| 20260507162542 | 62 | 90 | 2.0 | 5.0 | 0.00 | 0.22 | 0.18 | 98 | 1010.0 |
| 20260507161540 | 62 | 90 | 3.0 | 5.0 | 0.00 | 0.22 | 0.18 | 98 | 1010.0 |
| 20260507160535 | 64 | 90 | 3.0 | 4.0 | 0.00 | 0.22 | 0.18 | 96 | 1010.1 |
| 20260507155532 | 64 | 65 | 1.0 | 3.0 | 0.00 | 0.22 | 0.18 | 96 | 1010.1 |
| 20260507154529 | 65 | 0.0 | 0.0 | 0.00 | 0.22 | 0.18 | 96 | 1010.4 | |
| 20260507153525 | 65 | 0.0 | 0.0 | 0.00 | 0.22 | 0.18 | 96 | 1010.3 | |
| 20260507152522 | 64 | 0.0 | 0.0 | 0.00 | 0.22 | 0.18 | 96 | 1010.4 | |
| 20260507151519 | 64 | 0.0 | 0.0 | 0.00 | 0.22 | 0.18 | 96 | 1010.8 | |
| 20260507150515 | 64 | 0.0 | 0.0 | 0.00 | 0.22 | 0.18 | 96 | 1010.8 | |
| 20260507145612 | 64 | 0.0 | 0.0 | 0.00 | 0.22 | 0.18 | 96 | 1010.6 | |
| 20260507144609 | 64 | 0.0 | 0.0 | 0.00 | 0.22 | 0.18 | 96 | 1010.7 | |
| 20260507143605 | 64 | 0.0 | 0.0 | 0.00 | 0.22 | 0.18 | 96 | 1010.3 | |
| 20260507142602 | 64 | 0.0 | 0.0 | 0.00 | 0.22 | 0.18 | 96 | 1010.2 | |
| 20260507141558 | 64 | 0.0 | 0.0 | 0.00 | 0.22 | 0.18 | 96 | 1010.3 | |
| 20260507140555 | 64 | 0.0 | 0.0 | 0.00 | 0.22 | 0.18 | 96 | 1010.4 | |
| 20260507135551 | 64 | 0.0 | 0.0 | 0.01 | 0.22 | 0.18 | 96 | 1010.0 | |
| 20260507134548 | 64 | 0.0 | 0.0 | 0.02 | 0.22 | 0.18 | 96 | 1010.5 | |
| 20260507133545 | 63 | 0.0 | 0.0 | 0.02 | 0.22 | 0.18 | 98 | 1010.4 | |
| 20260507132541 | 63 | 0.0 | 0.0 | 0.04 | 0.22 | 0.18 | 98 | 1010.2 | |
| 20260507131538 | 63 | 0.0 | 0.0 | 0.05 | 0.22 | 0.18 | 98 | 1010.4 | |
| 20260507130534 | 62 | 0.0 | 0.0 | 0.07 | 0.22 | 0.18 | 98 | 1010.3 | |
| 20260507125531 | 62 | 0.0 | 0.0 | 0.06 | 0.21 | 0.17 | 98 | 1010.7 | |
| 20260507124547 | 62 | 0.0 | 0.0 | 0.06 | 0.20 | 0.15 | 98 | 1011.1 | |
| 20260507123524 | 62 | 0.0 | 0.0 | 0.07 | 0.20 | 0.15 | 98 | 1011.5 | |
| 20260507122521 | 62 | 0.0 | 0.0 | 0.07 | 0.19 | 0.14 | 98 | 1011.8 | |
| 20260507121517 | 62 | 0.0 | 0.0 | 0.06 | 0.18 | 0.13 | 98 | 1011.3 | |
| 20260507120614 | 62 | 0.0 | 0.0 | 0.04 | 0.15 | 0.11 | 98 | 1011.3 | |
| 20260507115611 | 62 | 0.0 | 0.0 | 0.04 | 0.15 | 0.11 | 98 | 1011.1 | |
| 20260507114607 | 62 | 0.0 | 0.0 | 0.02 | 0.14 | 0.09 | 98 | 1011.4 | |
| 20260507113604 | 62 | 0.0 | 0.0 | 0.01 | 0.13 | 0.08 | 98 | 1011.3 | |
| 20260507112601 | 62 | 0.0 | 0.0 | 0.00 | 0.12 | 0.07 | 98 | 1010.9 | |
| 20260507111558 | 62 | 0.0 | 0.0 | 0.00 | 0.12 | 0.07 | 97 | 1010.9 | |
| 20260507110553 | 62 | 0.0 | 0.0 | 0.00 | 0.12 | 0.07 | 97 | 1010.7 | |
| 20260507105550 | 62 | 0.0 | 0.0 | 0.00 | 0.12 | 0.07 | 97 | 1010.5 | |
| 20260507104546 | 62 | 0.0 | 0.0 | 0.00 | 0.12 | 0.07 | 97 | 1010.6 | |
| 20260507103542 | 62 | 0.0 | 0.0 | 0.00 | 0.12 | 0.07 | 97 | 1010.7 | |
| 20260507102539 | 62 | 0.0 | 0.0 | 0.00 | 0.12 | 0.07 | 97 | 1010.6 | |
| 20260507101535 | 62 | 0.0 | 0.0 | 0.00 | 0.12 | 0.07 | 97 | 1010.4 | |
| 20260507100532 | 62 | 0.0 | 0.0 | 0.00 | 0.12 | 0.07 | 97 | 1010.5 | |
| 20260507095530 | 62 | 0.0 | 0.0 | 0.00 | 0.12 | 0.07 | 97 | 1010.7 | |
| 20260507094525 | 62 | 0.0 | 0.0 | 0.00 | 0.12 | 0.07 | 97 | 1010.6 | |
| 20260507093522 | 62 | 0.0 | 0.0 | 0.00 | 0.12 | 0.07 | 97 | 1010.7 | |
| 20260507092519 | 62 | 0.0 | 0.0 | 0.00 | 0.12 | 0.07 | 97 | 1010.7 | |
| 20260507091555 | 62 | 0.0 | 0.0 | 0.00 | 0.12 | 0.07 | 97 | 1010.3 | |
| 20260507090612 | 62 | 0.0 | 0.0 | 0.00 | 0.12 | 0.07 | 97 | 1010.4 | |
| 20260507085629 | 62 | 0.0 | 0.0 | 0.00 | 0.12 | 0.07 | 97 | 1011.2 | |
| 20260507084625 | 62 | 0.0 | 0.0 | 0.00 | 0.12 | 0.07 | 97 | 1011.0 | |
| 20260507083603 | 62 | 270 | 1.0 | 2.0 | 0.00 | 0.12 | 0.07 | 97 | 1011.0 |
| 20260507082558 | 62 | 0.0 | 0.0 | 0.00 | 0.12 | 0.07 | 97 | 1010.5 | |
| 20260507081555 | 62 | 0.0 | 0.0 | 0.00 | 0.12 | 0.07 | 97 | 1010.6 | |
| 20260507080552 | 62 | 0.0 | 0.0 | 0.00 | 0.12 | 0.07 | 97 | 1010.8 | |
| 20260507075548 | 62 | 0.0 | 0.0 | 0.01 | 0.12 | 0.07 | 97 | 1010.5 | |
| 20260507074545 | 62 | 0.0 | 0.0 | 0.05 | 0.12 | 0.07 | 97 | 1010.7 | |
| 20260507073601 | 62 | 0.0 | 1.0 | 0.05 | 0.12 | 0.07 | 96 | 1010.5 | |
| 20260507072538 | 62 | 0.0 | 0.0 | 0.05 | 0.12 | 0.07 | 96 | 1010.7 | |
| 20260507071535 | 62 | 0.0 | 0.0 | 0.05 | 0.12 | 0.07 | 96 | 1011.2 | |
| 20260507070531 | 62 | 270 | 0.0 | 2.0 | 0.05 | 0.12 | 0.07 | 96 | 1011.0 |
| 20260507065528 | 62 | 0.0 | 0.0 | 0.04 | 0.11 | 0.06 | 96 | 1010.8 | |
| 20260507064525 | 63 | 0.0 | 0.0 | 0.00 | 0.07 | 0.02 | 96 | 1011.2 | |
| 20260507063521 | 63 | 0.0 | 0.0 | 0.01 | 0.07 | 0.02 | 96 | 1011.2 | |
| 20260507062518 | 63 | 0.0 | 0.0 | 0.01 | 0.07 | 0.02 | 96 | 1011.4 | |
| 20260507061614 | 63 | 0.0 | 0.0 | 0.01 | 0.07 | 0.02 | 96 | 1011.8 | |
| 20260507060610 | 63 | 0.0 | 0.0 | 0.01 | 0.07 | 0.02 | 96 | 1012.0 | |
| 20260507055605 | 63 | 0.0 | 0.0 | 0.01 | 0.07 | 0.02 | 96 | 1012.5 | |
| 20260507054602 | 63 | 0.0 | 0.0 | 0.02 | 0.07 | 0.02 | 96 | 1012.9 | |
| 20260507053559 | 63 | 0.0 | 0.0 | 0.01 | 0.06 | 0.01 | 96 | 1012.9 | |
| 20260507052555 | 63 | 0.0 | 0.0 | 0.01 | 0.06 | 0.01 | 96 | 1012.8 | |
| 20260507051552 | 63 | 0.0 | 0.0 | 0.01 | 0.06 | 0.01 | 96 | 1013.0 | |
| 20260507050548 | 63 | 0.0 | 0.0 | 0.01 | 0.06 | 0.01 | 95 | 1013.2 | |
| 20260507045545 | 63 | 0.0 | 0.0 | 0.01 | 0.06 | 0.01 | 95 | 1013.1 | |
| 20260507044542 | 63 | 0.0 | 0.0 | 0.00 | 0.05 | 0.00 | 95 | 1013.4 | |
| 20260507043538 | 64 | 0.0 | 0.0 | 0.00 | 0.05 | 0.00 | 91 | 1013.0 | |
| 20260507042535 | 64 | 0.0 | 0.0 | 0.00 | 0.05 | 0.00 | 91 | 1012.9 | |
| 20260507041612 | 64 | 0.0 | 0.0 | 0.00 | 0.05 | 0.00 | 91 | 1012.6 | |
| 20260507040528 | 64 | 0.0 | 0.0 | 0.01 | 0.05 | 0.00 | 90 | 1012.6 | |
| 20260507035524 | 64 | 0.0 | 0.0 | 0.01 | 0.05 | 0.05 | 90 | 1012.4 | |
| 20260507034541 | 64 | 0.0 | 0.0 | 0.01 | 0.05 | 0.05 | 90 | 1012.4 | |
| 20260507033518 | 64 | 0.0 | 0.0 | 0.02 | 0.05 | 0.05 | 90 | 1012.1 | |
| 20260507032635 | 65 | 0.0 | 0.0 | 0.02 | 0.05 | 0.05 | 90 | 1012.3 | |
| 20260507031611 | 65 | 0.0 | 0.0 | 0.02 | 0.05 | 0.05 | 90 | 1012.2 |